Location: Gallinara
(44.0333°N, 8.2333°E)
Time: 02:35:18
(UTC+00:00)

Cosmos 1733 Rocket - Pass Details

Date: 25 September 2020
Orbit: 602 x 629 km, 82.5° (Epoch: 29 October)

Event Time Altitude Azimuth Distance (km) Brightness Sun altitude
Rises 03:41:56 0° 349° (NNW) 2,880 6.6 -17.9°
Reaches altitude 10° 03:44:11 10° 347° (NNW) 1,967 5.7 -17.5°
Maximum altitude 03:48:29 68° 265° (W) 654 2.9 -16.7°
Drops below altitude 10° 03:52:46 10° 182° (S) 1,943 5.4 -16.0°
Sets 03:54:58 0° 180° (S) 2,840 6.3 -15.6°
